weather.gov     
National Weather Service

Terminal Aerodrome Forecast
NWS Homepage
This page is being discontinued on March 12, 2014.
The same data is available at this site. Please update your bookmarks.
Thank you, and we apologize for the inconvenience.
Please send an email to SR-SRH.Webmaster@noaa.gov with any concerns.


Current Version
Previous Version:    01  02  03  04  05  06  07  08  09  10  11  12  13  14  15  16  17  18  19  20  21  22  23  24  25  26  27  28  29  30  
   31  32  33  34  35  36  37  
[Printable]
178
FTUS44 KJAN 021100
TAFGLH
TAF
KGLH 021120Z 0212/0312 18006KT 6SM BR BKN008 OVC200
     FM021500 20007KT P6SM BKN025 BKN200
     FM021630 22008KT P6SM SCT040
     FM021800 22010KT P6SM VCTS SCT050CB SCT200
     FM022300 21008KT P6SM BKN250
     FM030800 22004KT 6SM BR SKC=


U.S. Dept. of Commerce
NOAA National Weather Service
1325 East West Highway
Silver Spring, MD 20910
E-mail: w-nws.webmaster@noaa.gov
Page last modified: May 16, 2007
NATIONAL WEATHER SERVICE: for Safety, for Work, for Fun - FOR LIFE